Location: Bonaustraße
(48.4603°N, 11.9280°E)
Time: 06:50:34
(UTC+01:00)

X-37B - Pass Details

Date: 21 January 2021
Orbit: 383 x 391 km, 45.0° (Epoch: 27 February)

Event Time Altitude Azimuth Distance (km) Brightness Sun altitude
Rises 17:32:26 0° 208° (SSW) 2,261 5.4 -6.6°
Reaches altitude 10° 17:35:17 10° 180° (S) 1,413 3.7 -7.0°
Maximum altitude 17:36:53 13° 150° (SSE) 1,242 3.1 -7.2°
Drops below altitude 10° 17:38:29 10° 120° (ESE) 1,418 3.1 -7.5°
Enters shadow 17:39:40 - 104° (ESE) 1,720 3.4 -7.7°
